| time (UTC) | temp F | wind direction | speed knots | gust knots | rain 1hr in | rain 24hr in | rain mn in | humidity % | barometer mb |
| 20260504215006 | 62 | 241 | 4.3 | 13.0 | 0.00 | 0.00 | 0.00 | 80 | 1012.3 |
| 20260504214006 | 62 | 208 | 4.3 | 10.4 | 0.00 | 0.00 | 0.00 | 80 | 1012.3 |
| 20260504213006 | 62 | 209 | 2.6 | 10.4 | 0.00 | 0.00 | 0.00 | 80 | 1012.4 |
| 20260504212006 | 62 | 217 | 5.2 | 10.4 | 0.00 | 0.00 | 0.00 | 80 | 1012.5 |
| 20260504211006 | 63 | 227 | 5.2 | 12.2 | 0.00 | 0.00 | 0.00 | 80 | 1012.5 |
| 20260504210006 | 63 | 237 | 6.1 | 10.4 | 0.00 | 0.00 | 0.00 | 79 | 1012.4 |
| 20260504205005 | 63 | 226 | 4.3 | 10.4 | 0.00 | 0.00 | 0.00 | 79 | 1012.4 |
| 20260504204008 | 63 | 249 | 2.6 | 7.8 | 0.00 | 0.00 | 0.00 | 79 | 1012.3 |
| 20260504204006 | 63 | 238 | 4.3 | 10.4 | 0.00 | 0.00 | 0.00 | 79 | 1012.3 |
| 20260504203008 | 63 | 226 | 5.2 | 10.4 | 0.00 | 0.00 | 0.00 | 79 | 1012.5 |
| 20260504203006 | 63 | 230 | 5.2 | 13.0 | 0.00 | 0.00 | 0.00 | 79 | 1012.6 |
| 20260504201006 | 63 | 258 | 4.3 | 10.4 | 0.00 | 0.00 | 0.00 | 79 | 1012.5 |
| 20260504200006 | 64 | 226 | 4.3 | 10.4 | 0.00 | 0.00 | 0.00 | 77 | 1012.5 |
| 20260504195006 | 64 | 242 | 1.7 | 10.4 | 0.00 | 0.00 | 0.00 | 78 | 1012.7 |
| 20260504194006 | 63 | 223 | 4.3 | 10.4 | 0.00 | 0.00 | 0.00 | 78 | 1012.7 |
| 20260504193006 | 63 | 244 | 5.2 | 10.4 | 0.00 | 0.00 | 0.00 | 78 | 1012.7 |
| 20260504192006 | 64 | 225 | 2.6 | 7.8 | 0.00 | 0.00 | 0.00 | 77 | 1012.7 |
| 20260504190007 | 64 | 224 | 3.5 | 10.4 | 0.00 | 0.00 | 0.00 | 78 | 1012.7 |
| 20260504185006 | 63 | 216 | 4.3 | 8.7 | 0.00 | 0.00 | 0.00 | 78 | 1012.7 |
| 20260504184006 | 63 | 234 | 2.6 | 10.4 | 0.00 | 0.00 | 0.00 | 79 | 1012.7 |
| 20260504183006 | 63 | 296 | 3.5 | 10.4 | 0.00 | 0.00 | 0.00 | 79 | 1012.6 |
| 20260504182007 | 63 | 231 | 3.5 | 10.4 | 0.00 | 0.00 | 0.00 | 79 | 1012.6 |
| 20260504181007 | 63 | 226 | 1.7 | 10.4 | 0.00 | 0.00 | 0.00 | 80 | 1012.5 |
| 20260504180006 | 62 | 205 | 4.3 | 8.7 | 0.00 | 0.00 | 0.00 | 81 | 1012.4 |
| 20260504175006 | 62 | 225 | 2.6 | 8.7 | 0.00 | 0.00 | 0.00 | 81 | 1012.3 |
| 20260504174006 | 62 | 232 | 2.6 | 8.7 | 0.00 | 0.00 | 0.00 | 81 | 1012.4 |
| 20260504172006 | 62 | 216 | 1.7 | 7.0 | 0.00 | 0.00 | 0.00 | 81 | 1012.2 |
| 20260504171006 | 61 | 228 | 2.6 | 5.2 | 0.00 | 0.00 | 0.00 | 82 | 1012.1 |
| 20260504151006 | 54 | 228 | 1.7 | 7.8 | 0.00 | 0.00 | 0.00 | 94 | 1011.5 |
| 20260504082005 | 52 | 212 | 1.7 | 4.3 | 0.00 | 0.00 | 0.00 | 97 | 1009.4 |
| 20260504081005 | 52 | 227 | 1.7 | 6.1 | 0.00 | 0.00 | 0.00 | 97 | 1009.4 |
| 20260504050005 | 66 | 43 | 0.0 | 0.0 | 0.00 | 0.00 | 0.00 | 64 | 1007.8 |
| 20260504045005 | 66 | 43 | 0.0 | 1.7 | 0.00 | 0.00 | 0.00 | 62 | 1007.6 |
| 20260504044005 | 67 | 53 | 0.9 | 1.7 | 0.00 | 0.00 | 0.00 | 65 | 1007.7 |
| 20260504043005 | 67 | 17 | 0.0 | 0.9 | 0.00 | 0.00 | 0.00 | 66 | 1007.6 |
| 20260504042005 | 67 | 62 | 0.0 | 2.6 | 0.00 | 0.00 | 0.00 | 65 | 1007.5 |
| 20260504041006 | 68 | 65 | 0.9 | 2.6 | 0.00 | 0.00 | 0.00 | 64 | 1007.3 |
| 20260504040005 | 68 | 48 | 1.7 | 2.6 | 0.00 | 0.00 | 0.00 | 64 | 1007.3 |
| 20260504035005 | 68 | 36 | 0.9 | 2.6 | 0.00 | 0.00 | 0.00 | 65 | 1007.2 |
| 20260504034005 | 69 | 43 | 0.9 | 1.7 | 0.00 | 0.00 | 0.00 | 65 | 1007.1 |
| 20260504033005 | 71 | 295 | 0.0 | 1.7 | 0.00 | 0.00 | 0.00 | 64 | 1007.0 |
| 20260504032007 | 71 | 291 | 0.9 | 1.7 | 0.00 | 0.00 | 0.00 | 60 | 1006.9 |
| 20260504031005 | 72 | 69 | 0.9 | 1.7 | 0.00 | 0.00 | 0.00 | 60 | 1006.7 |
| 20260504030008 | 73 | 286 | 0.9 | 1.7 | 0.00 | 0.00 | 0.00 | 57 | 1006.6 |
| 20260504024006 | 75 | 296 | 1.7 | 2.6 | 0.00 | 0.00 | 0.00 | 53 | 1006.5 |
| 20260504023007 | 76 | 40 | 0.0 | 1.7 | 0.00 | 0.00 | 0.00 | 53 | 1006.6 |
| 20260504022005 | 76 | 318 | 1.7 | 4.3 | 0.00 | 0.00 | 0.00 | 51 | 1006.6 |
| 20260504021007 | 77 | 23 | 0.0 | 2.6 | 0.00 | 0.00 | 0.00 | 50 | 1006.7 |
| 20260504015007 | 77 | 224 | 1.7 | 6.1 | 0.00 | 0.00 | 0.00 | 52 | 1006.7 |
| 20260504014007 | 76 | 251 | 1.7 | 4.3 | 0.00 | 0.00 | 0.00 | 54 | 1006.6 |
| 20260504013008 | 77 | 183 | 1.7 | 5.2 | 0.00 | 0.00 | 0.00 | 54 | 1006.7 |
| 20260504013006 | 77 | 181 | 0.9 | 5.2 | 0.00 | 0.00 | 0.00 | 54 | 1006.7 |
| 20260504012007 | 77 | 194 | 1.7 | 2.6 | 0.00 | 0.00 | 0.00 | 53 | 1006.7 |
| 20260504011006 | 78 | 136 | 0.9 | 5.2 | 0.00 | 0.00 | 0.00 | 53 | 1006.9 |
| 20260504010007 | 79 | 231 | 0.9 | 4.3 | 0.00 | 0.00 | 0.00 | 52 | 1006.9 |
| 20260504005007 | 80 | 169 | 1.7 | 6.1 | 0.00 | 0.00 | 0.00 | 51 | 1007.0 |
| 20260504004007 | 80 | 273 | 2.6 | 6.1 | 0.00 | 0.00 | 0.00 | 50 | 1007.1 |
| 20260504004005 | 80 | 245 | 2.6 | 6.1 | 0.00 | 0.00 | 0.00 | 50 | 1007.1 |
| 20260504003006 | 81 | 331 | 1.7 | 4.3 | 0.00 | 0.00 | 0.00 | 49 | 1007.2 |
| 20260504002007 | 81 | 306 | 0.9 | 6.1 | 0.00 | 0.00 | 0.00 | 49 | 1007.3 |
| 20260504001007 | 81 | 95 | 0.9 | 5.2 | 0.00 | 0.00 | 0.00 | 49 | 1007.4 |
| 20260504000006 | 80 | 298 | 1.7 | 4.3 | 0.00 | 0.00 | 0.00 | 51 | 1007.4 |
| 20260503235007 | 78 | 280 | 1.7 | 7.0 | 0.00 | 0.00 | 0.00 | 54 | 1007.5 |
| 20260503234006 | 78 | 42 | 2.6 | 5.2 | 0.00 | 0.00 | 0.00 | 53 | 1007.6 |
| 20260503233006 | 79 | 329 | 1.7 | 6.1 | 0.00 | 0.00 | 0.00 | 53 | 1007.6 |
| 20260503232007 | 80 | 299 | 2.6 | 7.8 | 0.00 | 0.00 | 0.00 | 51 | 1007.7 |
| 20260503231007 | 81 | 319 | 3.5 | 8.7 | 0.00 | 0.00 | 0.00 | 50 | 1007.8 |
| 20260503230007 | 83 | 304 | 1.7 | 6.1 | 0.00 | 0.00 | 0.00 | 48 | 1007.9 |
| 20260503225007 | 83 | 290 | 1.7 | 6.1 | 0.00 | 0.00 | 0.00 | 46 | 1008.1 |
| 20260503224007 | 84 | 22 | 1.7 | 2.6 | 0.00 | 0.00 | 0.00 | 46 | 1008.1 |
| 20260503223007 | 82 | 32 | 2.6 | 7.8 | 0.00 | 0.00 | 0.00 | 48 | 1008.2 |
| 20260503222007 | 82 | 15 | 4.3 | 7.0 | 0.00 | 0.00 | 0.00 | 48 | 1008.3 |
| 20260503221007 | 82 | 355 | 1.7 | 7.0 | 0.00 | 0.00 | 0.00 | 49 | 1008.4 |
| 20260503220006 | 84 | 318 | 1.7 | 5.2 | 0.00 | 0.00 | 0.00 | 48 | 1008.5 |